Location: Buena Vista
(37.7110°N, 119.7938°W)
Time: 09:12:55
(UTC+00:00)

SEEDS - Pass Details

Date: 11 October 2024
Orbit: 534 x 541 km, 97.7° (Epoch: 03 November)

Event Time Altitude Azimuth Distance (km) Brightness Sun altitude
Rises 12:34:45 0° 1° (N) 2,720 ? -18.5°
Reaches altitude 10° 12:37:02 10° 352° (N) 1,820 ? -18.1°
Enters shadow 12:40:02 31° 305° (NW) 972 ? -17.5°
